Home   Weather   Datteln   Past weeks

Flag for Germany Past Weather in Datteln, North Rhine-Westphalia, Germany — Yesterday and Last 2 Weeks

Now
27 °F

Sunny.


Feels Like: 27 °F
Forecast: 23 / 35 °F
Wind: 2 mph from North

Location: Dortmund / Wickede

Current Time: Dec 5, 2016 at 9:43:37 am

Latest Report: Dec 5, 2016 at 8:50 am


Visibility: 10 mi

Pressure: 30.30 "Hg

Humidity: 69%

Dew Point: 18 °F

Location of DattelnLocation

Past Weather in Datteln — Graph

°F

Datteln Temperature Yesterday

Maximum temperature yesterday: 36 °F (at 12:50 pm)
Minimum temperature yesterday: 21 °F (at 7:50 am)
Average temperature yesterday: 29 °F

High & Low Weather Summary for the Past Weeks

 TemperatureHumidityPressure
High57 °F (Nov 21, 2:50 pm)93% (Nov 24, 5:20 am)30.57 "Hg (Nov 24, 5:20 am)
Low21 °F (Nov 29, 6:50 am)41% (Nov 30, 12:20 pm)29.30 "Hg (Nov 20, 11:20 am)
Average39 °F76%30.13 "Hg
* Reported Nov 20 8:20 am — Dec 5 8:20 am, Datteln, Weather by CustomWeather, © 2016

Note: Actual official high and low records may vary slightly from our data, if they occured in-between our weather recording intervals... More about our weather records

Advertising

Datteln Weather History for the Previous 24 Hours

Scroll right to see more
 ConditionsComfort  
Time TempWeatherWind HumidityBarometerVisibility
8:20 am
Mon, Dec 5
27 °FSunny.2 mph69%30.30 "Hg10 mi
7:50 am25 °FClear.No wind69%30.27 "Hg10 mi
7:20 am25 °FClear.5 mph63%30.27 "Hg10 mi
6:50 am27 °FClear.2 mph64%30.27 "Hg10 mi
6:20 am28 °FClear.2 mph64%30.27 "Hg10 mi
5:50 am27 °FClear.2 mph64%30.27 "Hg10 mi
5:20 am30 °FClear.5 mph64%30.27 "Hg10 mi
9:50 pm
Sun, Dec 4
27 °FClear.2 mph74%30.33 "Hg10 mi
9:20 pm28 °FClear.1 mph64%30.33 "Hg10 mi
8:50 pm28 °FClear.2 mph69%30.33 "Hg10 mi
8:20 pm28 °FClear.3 mph69%30.33 "Hg10 mi
7:50 pm30 °FClear.5 mph69%30.33 "Hg10 mi
7:20 pm27 °FClear.2 mph74%30.33 "Hg10 mi
6:50 pm28 °FClear.3 mph74%30.30 "Hg10 mi
6:20 pm30 °FClear.6 mph75%30.30 "Hg10 mi
5:50 pm30 °FClear.5 mph75%30.30 "Hg10 mi
5:20 pm30 °FClear.5 mph75%30.30 "Hg10 mi
4:50 pm30 °FClear.3 mph75%30.33 "Hg10 mi
4:20 pm32 °FSunny.6 mph69%30.33 "Hg10 mi
3:50 pm34 °FSunny.5 mph70%30.30 "Hg10 mi
3:20 pm36 °FSunny.5 mph70%30.33 "Hg10 mi
2:50 pm36 °FSunny.5 mph70%30.33 "Hg10 mi
2:20 pm36 °FSunny.6 mph70%30.33 "Hg10 mi
1:50 pm36 °FSunny.6 mph65%30.33 "Hg10 mi
1:20 pm36 °FPassing clouds.6 mph70%30.33 "HgN/A
12:50 pm36 °FSunny.3 mph70%30.33 "Hg10 mi
12:20 pm34 °FSunny.3 mph70%30.33 "Hg10 mi
11:50 am34 °FSunny.2 mph65%30.33 "Hg10 mi
11:20 am32 °FSunny.2 mph69%30.36 "Hg10 mi
10:50 am32 °FSunny.3 mph69%30.36 "Hg10 mi
10:20 am28 °FSunny.3 mph74%30.36 "Hg10 mi
9:50 am27 °FSunny.3 mph80%30.33 "Hg10 mi
9:20 am23 °FSunny.5 mph86%30.33 "Hg10 mi
Weather by CustomWeather, © 2016

See weather overviewHow to use our weather pages